Current Version              Previous Version:    01  02  03  04  05  06  07  08  09  10  11  12  13  14  15  16  17  18  19  20  21  22  23  24  25  26  27  28  29  30  
   31  32  33  34  35  36  37  38  39  40  41  42  43  44  45  46  47  48  49  50  51  52  53  54  55  56  57  58  59  60  

[Printable]
389
ASUS44 KFWD 232301
RWRTX
NORTH TEXAS HOURLY WEATHER ROUNDUP
NATIONAL WEATHER SERVICE FORT WORTH TX
600 PM CDT WED JUL 23 2014

NOTE: "FAIR" INDICATES FEW OR NO CLOUDS BELOW 12,000 FEET WITH NO
SIGNIFICANT WEATHER AND/OR OBSTRUCTIONS TO VISIBILITY.

TXZ118-119-240000-
DALLAS/FORT WORTH METROPLEX

CITY           SKY/WX    TMP DP  RH WIND       PRES   REMARKS
DFW AIRPORT    CLOUDY    94  68  42 CALM      30.01S HX  98
DALLAS LOVE    CLOUDY    94  68  42 E5        30.01S HX  98
FTW MEACHAM    MOSUNNY   94  69  44 VRB7      30.01S HX  99
DAL-EXECUTIVE  MOSUNNY   96  67  38 NE5       30.02S HX 100
FTW-ALLIANCE   PTSUNNY   91  69  48 NE6       30.01F HX  96
FTW-NAS-JRB    MOSUNNY   96  66  37 N9        30.04F HX  99
FTW-SPINKS     MOSUNNY   97  63  32 NE15      30.03S HX  98
ARLINGTON      MOSUNNY   94  65  38 NE5       30.02R HX  96
GRAND PRAIRIE  SUNNY     93  64  38 NE9       30.02F HX  95
ADDISON        CLOUDY    93  68  43 NE6       30.01  HX  97
MESQUITE         N/A     91  68  46 N3        30.01F HX  95
LANCASTER      SUNNY     93  65  38 E3        30.02S HX  95
$$

TXZ091>094-102>105-117-120-121-131>134-240000-
NORTH CENTRAL TEXAS

CITY           SKY/WX    TMP DP  RH WIND       PRES   REMARKS
SHRMAN/DENISON CLOUDY    92  71  50 NE5       30.04R HX  98
GAINESVILLE    CLOUDY    92  69  47 NE3       30.03F HX  97
BOWIE          MOSUNNY   92  70  48 S3        30.04S HX  98
BRIDGEPORT     MOSUNNY   92  66  41 E5        30.05S HX  95
DECATUR        MOSUNNY   91  67  45 E3        30.04F HX  94
DENTON         MOSUNNY   91  70  49 CALM      30.01F HX  96
MCKINNEY       PTSUNNY   92  72  51 VRB5      30.01F HX  99
ROCKWALL       MOSUNNY   91  72  53 CALM      30.00S HX  98
TERRELL        SUNNY     93  66  40 E7        30.02S HX  96
CLEBURNE       MOSUNNY   93  63  36 CALM      30.03F HX  94
GRANBURY       SUNNY     96  60  29 NE5       30.03S HX  96
$$

TXZ083>090-098>101-113>116-127>130-139>142-154-155-240000-
WESTERN NORTH TEXAS

CITY           SKY/WX    TMP DP  RH WIND       PRES   REMARKS
WICHITA FALLS  MOSUNNY   95  71  45 SE7       30.02F HX 102
WF-KICKAPOO    SUNNY     95  67  39 SE6       30.04S HX  99
VERNON         SUNNY     99  63  31 SE3       30.04F HX 101
ABILENE        SUNNY     96  63  33 E7        30.06F HX  97
ABILENE-DYESS  SUNNY     97  60  29 NE12      30.05F HX  96
BRECKENRIDGE   SUNNY     98  60  27 E9        30.03F HX  98
MINERAL WELLS  SUNNY     94  66  39 VRB6      30.02F HX  97
STEPHENVILLE   SUNNY     93  61  33 E7        30.07S HX  93
COMANCHE       SUNNY     94  61  32 E5        30.04F HX  94
BROWNWOOD      LGT RAIN  93  64  38 E7        30.04F HX  95
COLEMAN        MOSUNNY   95  61  32 E8        30.06F HX  95
BRADY          SUNNY     93  64  38 NE8       30.06F HX  95
$$

TXZ143>147-156>162-174-175-240000-
CENTRAL TEXAS

CITY           SKY/WX    TMP DP  RH WIND       PRES   REMARKS
WACO           SUNNY     95  65  37 E9        30.00R HX  97
WACO-MCGREGOR  SUNNY     95  64  36 E7        30.01R HX  97
HILLSBORO      SUNNY     94  61  33 E3        30.01F HX  94
CORSICANA      SUNNY     92  67  43 E7        30.04R HX  95
MEXIA          SUNNY     90  69  51 CALM      30.00S HX  94
TEMPLE         SUNNY     91  66  43 E7G16     30.00F HX  94
KILLEEN        MOSUNNY   93  63  36 N7        30.00F HX  94
KILLEEN-SKYLRK SUNNY     93  64  38 E6        29.99F HX  95
FORT HOOD      SUNNY     97  64  33 N8        29.99F HX  99
HAMILTON       SUNNY     92  62  35 NE6       30.04F HX  93
LAMPASAS       SUNNY     95  68  40 NE5       30.01F HX  99
$$

TXZ095>097-106>112-122>126-135>138-148>153-164>167-240000-
EAST TEXAS

CITY           SKY/WX    TMP DP  RH WIND       PRES   REMARKS
CLARKSVILLE    CLOUDY    74  67  78 N17G25    30.10R VSB 3/4
MOUNT PLEASANT CLOUDY    84  75  75 NE5       30.02F HX  91
MINEOLA        CLOUDY    90  72  55 CALM      30.02S HX  96
TYLER          MOSUNNY   91  67  44 CALM      30.04R HX  94
LONGVIEW       PTSUNNY   89  71  55 NW3       30.02R HX  95
MARSHALL       PTSUNNY   89  73  58 NW3       30.04S HX  97
ATHENS         MOSUNNY   88  68  51 CALM      30.03R HX  91
JACKSONVILLE   PTSUNNY   89  68  50 CALM      30.06R HX  93
HENDERSON      MOSUNNY   89  69  51 N3        30.05R HX  92
NACOGDOCHES    SUNNY     90  72  55 N3        30.02R HX  96
LUFKIN         SUNNY     94  70  45 VRB3      30.00R HX 100
$$

SUPPLEMENTAL OBSERVATIONS (CENTRAL)

CITY           SKY/WX    TMP DP  RH WIND       PRES   REMARKS
$$

SUPPLEMENTAL OBSERVATIONS (WEST)

CITY           SKY/WX    TMP DP  RH WIND       PRES   REMARKS
$$

SUPPLEMENTAL OBSERVATIONS (EAST)

CITY           SKY/WX    TMP DP  RH WIND       PRES   REMARKS
$$

SUPPLEMENTAL OBSERVATIONS ARE A COLLECTION OF AUTOMATED INSTRUMENTS
THAT ARE MAINTAINED BY A VARIETY OF FEDERAL AND STATE AGENCIES.
CERTAIN ELEMENTS...SUCH AS HUMIDITY VALUES AND SUSTAINED WIND
SPEEDS...MAY BE APPROXIMATED.




572
ASUS44 KLUB 232301
RWRTX
WEST TEXAS WEATHER ROUNDUP
NATIONAL WEATHER SERVICE LUBBOCK TX
600 PM CDT WED JUL 23 2014

NOTE: "FAIR" INDICATES FEW OR NO CLOUDS BELOW 12,000 FEET WITH NO
SIGNIFICANT WEATHER AND/OR OBSTRUCTIONS TO VISIBILITY.

TXZ004-006>008-010-012-014-016-OKZ002-240000-
TEXAS PANHANDLE/OKLAHOMA PANHANDLE

CITY           SKY/WX    TMP DP  RH WIND       PRES   REMARKS
AMARILLO       SUNNY     93  54  26 CALM      30.21F
BORGER         SUNNY     98  52  21 E6        30.17F HX  95
CANADIAN       SUNNY     97  59  28 E7        30.10F HX  96
DALHART        SUNNY     94  57  28 S16G22    30.23F
DUMAS          SUNNY     94  54  25 S9        30.21F
GUYMON         MOSUNNY   96  59  29 SE12      30.14F HX  95
HEREFORD       SUNNY     92  60  33 SE7       30.23F
$$

TXZ026-029-035-045-048-240000-
SOUTHERN PANHANDLE/SOUTH PLAINS/ROLLING PLAINS

CITY           SKY/WX    TMP DP  RH WIND       PRES   REMARKS
CHILDRESS      SUNNY     98  58  26 N5        30.09F HX  97
SEMINOLE       SUNNY     96  48  19 E6G12     30.16F
LUBBOCK        MOSUNNY   94  59  31 NE10      30.18F
$$

TXZ052-054-060>062-072-078-127-140-154-169-240000-
PERMIAN BASIN/CONCHO VALLEY/BIG COUNTRY/EDWARDS PLATEAU

CITY           SKY/WX    TMP DP  RH WIND       PRES   REMARKS
ABILENE        SUNNY     96  63  33 E7        30.06F HX  97
BIG SPRING     MOSUNNY  100  50  19 NE16G25   30.11F HX  96
BRADY          SUNNY     93  64  38 NE8       30.06F HX  95
BROWNWOOD      LGT RAIN  93  64  38 E7        30.04F HX  95
JUNCTION       SUNNY     95  62  33 E10       30.03F HX  96
MIDLAND        SUNNY     98  55  23 VRB7      30.10F HX  96
ODESSA         MOSUNNY   97  54  23 NE13      30.12F HX  95
SAN ANGELO     SUNNY     96  60  30 E12       30.05F HX  96
WINK           SUNNY    100  48  17 E14G23    30.07F HX  96
$$

TXZ055-058-074-075-080-082-240000-
FAR WEST/SOUTHWEST MOUNTAINS/TRANS PECOS

CITY           SKY/WX    TMP DP  RH WIND       PRES   REMARKS
ALPINE         MOSUNNY   89  48  24 SE8G14    30.27F
DRYDEN           N/A    102  55  20 E10G20    30.04F HX 100
EL PASO        MOSUNNY   95  43  16 SE12G22   30.13F
FORT STOCKTON  SUNNY     95  51  22 E16       30.12F
GUADALUPE PASS SUNNY     85  43  22 E23G35    30.30F
MARFA          MOSUNNY   88  48  25 E20       30.26F
PRESIDIO       FAIR      97  50  20 E5G22     30.03F
$$

TXZ014-016-019-021>030-083-240000
TEXAS TECH WEST TEXAS MESONET/TEXAS PANHANDLE/NORTHERN SOUTH PLAINS

CITY           SKY/WX    TMP DP  RH WIND       PRES   REMARKS
ABERNATHY 5ENE   N/A     92  57  31 E7        30.20F
AMARILLO 9NNE    N/A     92  59  32 S2        30.19F
AMARILLO 7SSE    N/A     93  59  31 E8        30.23F
AMHERST 1NE      N/A     92  55  27 E3        30.21F
BOOTLEG 11WNW    N/A     89  55  31 SE9       30.29F
CANADIAN 6E      N/A     96  63  33 NE5       30.11F HX  97
CAPROCK CYN SP   N/A     94  58  29 SE9       30.15F
CHILDRESS 2NNE   N/A     98  59  27 E3        30.09F HX  97
CLARENDON 2WSW   N/A     92  58  31 E2        30.17F
CLAUDE 12SW      N/A     91  61  36 N1        30.21F
DIMMITT 2NE      N/A     91  58  32 SE7       30.24F
FLOYDADA 2NNE    N/A     91  57  30 NE7       30.19F
FRIONA 2NE       N/A     92  53  26 SE3       30.25S
GOODLETT 3W      N/A     98  63  31 NE6       30.06F HX  99
HART 3N          N/A     92  57  30 SE2       30.23F
HEREFORD 2NW     N/A     91  54  28 E9        30.23F
MCLEAN 1E        N/A     94  61  33 SW2       30.15F
MEMPHIS 1NE      N/A     96  59  28 E5        30.11F HX  95
MULESHOE 2SSW    N/A     90  52  27 E7        30.22F
OLTON 6S         N/A     91  58  32 E8        30.21F
PALO DURO SP     N/A     94  58  30 E6        30.22F
PAMPA 2E         N/A     93  57  29 SE5       30.19F
PLAINVIEW 1S     N/A     92  61  35 SE3       30.19F
SILVERTON 7ESE   N/A     92  60  34 E5        30.19F
TULIA 2ENE       N/A     91  62  37 E10       30.21F
TURKEY 2WSW      N/A     96  58  28 NE3       30.13F HX  95
UMBARGER 3NNE    N/A     90  63  40 NW2       30.24F
$$

TXZ033>036-039>041-045>048-240000
TEXAS TECH WEST TEXAS MESONET/SOUTH PLAINS

CITY           SKY/WX    TMP DP  RH WIND       PRES   REMARKS
AIKEN 3WSW       N/A     90  65  42 NE6       30.21F
ANDREWS 2NE      N/A     97  46  17 E9        30.14F
BROWNFIELD 2S    N/A     94  50  22 S3        30.17F
DENVR CTY 7WNW   N/A     94  45  18 E12       30.18F
GAIL 2ESE        N/A     99  53  21 E12       30.09F HX  96
LAMESA 2SE       N/A     98  50  20 E8G23     30.13F HX  95
LEVELLAND 4S     N/A     94  49  21 E10       30.19F
MORTON 1ENE      N/A     94  52  23 E9        30.21F
ODONNELL 1N      N/A     95  49  20 E10       30.15F
PLAINS 3N        N/A     94  51  23 SE6       30.20F
RALLS 1SE        N/A     91  61  36 NE8       30.19F
REESE CENTER     N/A     94  51  23 E10G20    30.19S
SEAGRAVES 1SW    N/A     96  49  20 E8        30.16F
SEMINOLE 2NNE    N/A     96  47  18 SE10      30.16S
SLATON 2NE       N/A     93  55  27 NE8       30.17F
SNYDER 3E        N/A     98  54  22 NE9       30.10F HX  96
SUNDOWN 8SW      N/A     94  53  25 NE8       30.20F
TAHOKA 3NNE      N/A     96  56  26 NE13      30.15F
WOLFFORTH 6SSW   N/A     96  51  22 E9        30.18F
$$

TXZ031-032-036>038-042>044-240000-
TEXAS TECH WEST TEXAS MESONET/ROLLING PLAINS

CITY           SKY/WX    TMP DP  RH WIND       PRES   REMARKS
ASPERMONT 3NE    N/A     98  61  28 E7        30.06F HX  98
FLUVANNA 3WNW    N/A     97  51  21 NE12      30.12F
GRAHAM 5SSW      N/A     94  51  23 E13       30.13F
GUTHRIE 10WSW    N/A     97  62  31 E9        30.08F HX  98
HASKELL 1NW      N/A     95  62  33 NE7       30.05F HX  95
JAYTON 1SSE      N/A     97  59  28 E8        30.08F HX  96
KNOX CITY 3NW    N/A     99  59  26 NE8       30.05F HX  98
LK A HENRY 1NW   N/A     99  55  23 E5        30.09F HX  97
NORTHFIELD 1S    N/A     97  62  31 SE3       30.10F HX  98
ODELL 4ENE       N/A     97  61  30 NE2       30.04F HX  98
PADUCAH 10SW     N/A     95  62  32 E6        30.09F HX  96
POST 1NE         N/A     98  49  19 E5        30.12F HX  95
RRING SPRGS 3N   N/A     93  59  31 E7        30.15F
SEYMOUR 3NW      N/A     97  63  32 NE5       30.04F HX  98
SPUR 1W          N/A     94  57  28 NE5       30.11F
WEINERT 2NNE     N/A     96  63  33 E8        30.06F HX  98
WHITE RVR 6NE    N/A     95  60  31 E9        30.14F HX  95
$$

TXZ052-054-060>062-072-078-127-140-154-169-240000-
TEXAS TECH WEST TEXAS MESONET/PERMIAN BASIN/
CONCHO VALLEY/BIG COUNTRY/EDWARDS PLATEAU

CITY           SKY/WX    TMP DP  RH WIND       PRES   REMARKS
COYANOSA 2N      N/A     99  54  21 E6        30.08F HX  97
JUNCTION 1SSW    N/A     96  65  34 NE12      30.04F HX  99
MERTZON 3NNE     N/A     97  58  27 NE9       30.08F HX  96
SAN ANGELO 7NW   N/A     97  58  27 E13       30.06F HX  96
STRLNG CT 4WSW   N/A     99  54  22 NE9       30.08F HX  97
ST LAWRNCE 5SW   N/A     95  51  22 E12       30.10F
SWEETWATR 11SW   N/A     98  60  28 NE15      30.11F HX  98
WALL 1E          N/A     95  60  30 NE13      30.07F HX  95
$$

TXZ055-058-074-075-080-082-240000-
TEXAS TECH WEST TEXAS MESONET/FAR WEST/SOUTHWEST MOUNTAINS/TRANS PECOS

CITY           SKY/WX    TMP DP  RH WIND       PRES   REMARKS
PRSMN GAP BBNP   N/A     96  53  23 E12       30.06F
GUADLPE MTN NP   N/A     84  43  23 E15       30.32F
$$